TimePST,TemperatureF,Dew PointF,Humidity,Sea Level PressureIn,VisibilityMPH,Wind Direction,Wind SpeedMPH,Gust SpeedMPH,PrecipitationIn,Events,Conditions,WindDirDegrees,DateUTC
12:53 AM,48.9,45.0,86,30.13,10.0,SSE,3.5,-,N/A,,Clear,160,2012-12-03 08:53:00
1:53 AM,46.9,44.1,90,30.14,10.0,ENE,3.5,-,N/A,,Clear,70,2012-12-03 09:53:00
2:53 AM,46.0,44.1,93,30.14,10.0,Calm,Calm,-,N/A,,Clear,0,2012-12-03 10:53:00
3:53 AM,46.0,43.0,89,30.16,10.0,NE,3.5,-,N/A,,Clear,40,2012-12-03 11:53:00
4:53 AM,45.0,43.0,93,30.16,10.0,ENE,3.5,-,N/A,,Clear,70,2012-12-03 12:53:00
5:53 AM,45.0,43.0,93,30.16,10.0,Calm,Calm,-,N/A,,Scattered Clouds,0,2012-12-03 13:53:00
6:53 AM,44.6,42.8,93,30.18,10.0,Calm,Calm,-,N/A,,Scattered Clouds,0,2012-12-03 14:53:00
7:53 AM,46.4,42.8,87,30.20,10.0,NE,3.5,-,N/A,,Scattered Clouds,50,2012-12-03 15:53:00
8:53 AM,50.0,48.0,93,30.22,10.0,Calm,Calm,-,N/A,,Scattered Clouds,0,2012-12-03 16:53:00
9:53 AM,53.1,46.9,80,30.22,10.0,Calm,Calm,-,N/A,,Scattered Clouds,0,2012-12-03 17:53:00
10:53 AM,54.0,46.9,77,30.22,10.0,South,5.8,-,N/A,,Scattered Clouds,190,2012-12-03 18:53:00
11:53 AM,55.0,48.0,77,30.20,10.0,SSW,5.8,-,N/A,,Scattered Clouds,200,2012-12-03 19:53:00
12:53 PM,55.9,48.9,77,30.18,10.0,SW,5.8,-,N/A,,Scattered Clouds,230,2012-12-03 20:53:00
1:53 PM,57.9,48.9,72,30.17,10.0,West,6.9,-,N/A,,Mostly Cloudy,280,2012-12-03 21:53:00
2:53 PM,59.0,48.0,67,30.18,10.0,WNW,5.8,-,N/A,,Mostly Cloudy,300,2012-12-03 22:53:00
3:53 PM,59.0,48.9,69,30.18,10.0,West,4.6,-,N/A,,Mostly Cloudy,280,2012-12-03 23:53:00
4:53 PM,57.0,48.9,74,30.17,10.0,NW,3.5,-,N/A,,Overcast,320,2012-12-04 00:53:00
5:53 PM,57.0,48.0,72,30.18,10.0,Calm,Calm,-,N/A,,Overcast,0,2012-12-04 01:53:00
6:53 PM,55.9,50.0,80,30.18,10.0,Calm,Calm,-,N/A,,Overcast,0,2012-12-04 02:53:00
7:53 PM,55.0,50.0,83,30.16,10.0,ENE,4.6,-,N/A,,Overcast,70,2012-12-04 03:53:00
8:53 PM,55.9,48.0,75,30.17,10.0,ESE,4.6,-,N/A,,Overcast,120,2012-12-04 04:53:00
9:53 PM,53.1,48.0,83,30.21,10.0,NE,3.5,-,N/A,,Mostly Cloudy,50,2012-12-04 05:53:00
10:53 PM,54.0,48.9,83,30.18,10.0,East,3.5,-,N/A,,Mostly Cloudy,100,2012-12-04 06:53:00
11:53 PM,53.1,48.0,83,30.17,10.0,ESE,5.8,-,N/A,,Mostly Cloudy,110,2012-12-04 07:53:00